Regional Weather Roundup
Issued by NWS

Home | Current Version | Previous Version | Graphics & Text | Print | Product List | Glossary On
Versions: 1 2 3 4 5 6 7 8 9 10 11 12 13 14 15 16 17 18 19 20 21 22 23 24 25 26 27 28 29 30 31 32 33 34 35 36 37 38 39 40 41 42 43 44 45 46 47 48 49 50
000
ASUS44 KMEG 200100
RWRTN
TENNESSEE HOURLY STATE WEATHER ROUNDUP
NATIONAL WEATHER SERVICE MEMPHIS TN
800 PM CDT TUE SEP 19 2017

TNZ002-004-019-021-049-052-054-088>092-200200-
WEST TENNESSEE

CITY           SKY/WX    TMP DP  RH WIND       PRES   REMARKS
MEMPHIS INTL   CLEAR     82  70  66 S7        29.90R
NWS MEMPHIS      N/A     79 N/A N/A MISG        N/A
JACKSON        CLEAR     75  73  93 CALM      29.92R
DYERSBURG      CLEAR     76  72  87 SE3       29.90R
$$

TNZ008-025-027-028-033-062-065-066-200200-
NORTH MIDDLE TENNESSEE

CITY           SKY/WX    TMP DP  RH WIND       PRES   REMARKS
NASHVILLE      PTCLDY    72  69  90 CALM      29.96S
CLARKSVILLE    CLEAR     73  67  81 SE5       29.93R
SMYRNA         CLEAR     75  68  78 S3        29.97R
CROSSVILLE     CLEAR     63  63 100 CALM      30.02S FOG
$$

TNZ061-075-076-078-094-096-097-200200-
SOUTH MIDDLE TENNESSEE

CITY           SKY/WX    TMP DP  RH WIND       PRES   REMARKS
MCMINNVILLE    MOCLDY    70  70 100 CALM      29.99R
$$

TNZ017-018-042-046-047-200200-
NORTHEAST TENNESSEE

CITY           SKY/WX    TMP DP  RH WIND       PRES   REMARKS
TRI CITIES     CLEAR     70  63  78 CALM      30.00R
$$

TNZ012-013-036-069-073-074-200200-
CENTRAL EAST TENNESSEE

CITY           SKY/WX    TMP DP  RH WIND       PRES   REMARKS
KNOXVILLE      MOCLDY    68  64  87 CALM      29.99R
OAK RIDGE      MOCLDY    67  65  93 CALM      30.00
GATLINBURG     CLEAR     70  61  73 S3        29.99R
$$

TNZ083-085-099-200200-
SOUTHEAST TENNESSEE

CITY           SKY/WX    TMP DP  RH WIND       PRES   REMARKS
CHATTANOOGA    PTCLDY    71  67  87 CALM      29.97F
$$

SKY/WX REPORTED AS FAIR MEANS FEW OR NO CLOUDS BELOW
12 THOUSAND FEET.





USA.gov is the U.S. government's official web portal to all federal, state and local government web resources and services.